Weather History for Lago Vista, TX

Change the Weather History Date:

Saturday, July 27, 2013

  Actual Average (KATT) Record (KATT)
Temperature  
Mean Temperature 78 °F 86 °F  
Max Temperature 86 °F 97 °F 105 °F (1954)
Min Temperature 71 °F 75 °F 68 °F (1903)
Degree Days  
Heating Degree Days 0 0  
Month to date heating degree days 0  
Since 1 June heating degree days 0  
Since 1 July heating degree days 0  
Cooling Degree Days 14 21  
Month to date cooling degree days 536  
Year to date cooling degree days 1665  
Since 1 June cooling degree days 1052  
Growing Degree Days 28 (Base 50)    
Moisture  
Dew Point 70 °F    
Average Humidity 76    
Maximum Humidity 94    
Minimum Humidity 51    
Precipitation  
Precipitation 0.00 in 0.05 in 3.28 in (1979)
Month to date precipitation 1.65  
Year to date precipitation 19.51  
Snow  
Snow 0.00 in - - ()
Month to date snowfall  
Since 1 June snowfall  
Since 1 July snowfall  
Snow Depth -    
Sea Level Pressure  
Sea Level Pressure 29.99 in    
Wind  
Wind Speed 7 mph (NE)    
Max Wind Speed 12 mph    
Max Gust Speed 20 mph    
Visibility 10 miles    
Events Thunderstorm    
T = Trace of Precipitation, MM = Missing Value Source: NWS Daily Summary

Daily Weather History Graph

Daily Weather History Graph

Search for Another Location

Airport:

Trip Planner

Search our weather history database for the weather conditions in past years. The results will help you decide how hot, cold, wet, or windy it might be!

Date:

Astronomy

Jul. 27, 2013 Rise Set
Actual Time 6:47 AM CDT 8:29 PM CDT
Civil Twilight 6:20 AM CDT 8:55 PM CDT
Nautical Twilight 5:48 AM CDT 9:27 PM CDT
Astronomical Twilight 5:15 AM CDT 10:00 PM CDT
Moon 11:47 PM CDT (7/27) 12:00 PM CDT (7/27)
Length of Visible Light 14h 34m
Length of Day
13h 42m
Waning Gibbous, 70% of the Moon is Illuminated
Jul 27
Waning Gibbous
Jul 29
Last Quarter
Aug 6
New
Aug 14
First Quarter
Aug 20
Full

Hourly Weather History & Observations

Time (CDT) Temp. Heat Index Dew Point Humidity Pressure Visibility Wind Dir Wind Speed Gust Speed Precip Events Conditions
12:15 AM 77.0 °F - 73.4 °F 89% 30.01 in 5.0 mi SE 5.8 mph - N/A Thunderstorm Unknown
12:35 AM 77.0 °F - 73.4 °F 89% 30.02 in 10.0 mi SSE 8.1 mph - N/A Thunderstorm Overcast
12:55 AM 75.2 °F - 71.6 °F 89% 30.01 in 10.0 mi SE 6.9 mph - N/A Thunderstorm Overcast
1:15 AM 75.2 °F - 73.4 °F 94% 30.01 in 3.0 mi SSW 8.1 mph 18.4 mph N/A Thunderstorm Mostly Cloudy
1:35 AM 75.2 °F - 73.4 °F 94% 30.01 in 10.0 mi SSW 3.5 mph - N/A Thunderstorm Mostly Cloudy
1:55 AM 75.2 °F - 73.4 °F 94% 30.00 in 7.0 mi South 5.8 mph - N/A Thunderstorm Overcast
2:15 AM 77.0 °F - 73.4 °F 89% 30.00 in 10.0 mi SW 6.9 mph - N/A   Mostly Cloudy
2:35 AM 77.0 °F - 73.4 °F 89% 30.00 in 10.0 mi SW 3.5 mph - N/A   Scattered Clouds
2:55 AM 77.0 °F - 73.4 °F 89% 29.99 in 10.0 mi WSW 5.8 mph - N/A   Scattered Clouds
3:15 AM 77.0 °F - 73.4 °F 89% 29.99 in 10.0 mi Calm Calm - N/A   Mostly Cloudy
3:35 AM 77.0 °F - 73.4 °F 89% 29.98 in 10.0 mi West 6.9 mph - N/A   Overcast
3:55 AM 77.0 °F - 71.6 °F 83% 29.98 in 10.0 mi WNW 8.1 mph - N/A   Overcast
4:15 AM 77.0 °F - 71.6 °F 83% 29.97 in 10.0 mi WNW 8.1 mph - N/A   Overcast
4:35 AM 77.0 °F - 71.6 °F 83% 29.96 in 10.0 mi WNW 6.9 mph - N/A   Mostly Cloudy
4:55 AM 77.0 °F - 71.6 °F 83% 29.97 in 10.0 mi WNW 3.5 mph - N/A   Scattered Clouds
5:15 AM 77.0 °F - 71.6 °F 83% 29.97 in 10.0 mi NNW 5.8 mph - N/A   Mostly Cloudy
5:35 AM 77.0 °F - 71.6 °F 83% 29.97 in 10.0 mi North 9.2 mph - N/A   Mostly Cloudy
5:55 AM 75.2 °F - 71.6 °F 89% 29.97 in 10.0 mi NNE 10.4 mph - N/A   Scattered Clouds
6:15 AM 75.2 °F - 71.6 °F 89% 29.98 in 10.0 mi NNE 8.1 mph - N/A   Scattered Clouds
6:35 AM 73.4 °F - 71.6 °F 94% 29.99 in 10.0 mi NNE 6.9 mph - N/A   Mostly Cloudy
6:55 AM 73.4 °F - 71.6 °F 94% 30.00 in 10.0 mi NNE 8.1 mph - N/A   Scattered Clouds
7:15 AM 73.4 °F - 71.6 °F 94% 30.00 in 10.0 mi NNE 6.9 mph - N/A   Scattered Clouds
7:35 AM 73.4 °F - 71.6 °F 94% 30.00 in 10.0 mi NNE 8.1 mph - N/A   Mostly Cloudy
7:55 AM 73.4 °F - 71.6 °F 94% 30.01 in 10.0 mi NE 6.9 mph - N/A   Overcast
8:15 AM 73.4 °F - 71.6 °F 94% 30.01 in 10.0 mi NE 5.8 mph - N/A   Overcast
8:35 AM 73.4 °F - 71.6 °F 94% 30.02 in 10.0 mi NNE 5.8 mph - N/A   Overcast
8:55 AM 75.2 °F - 71.6 °F 89% 30.02 in 10.0 mi NE 5.8 mph - N/A   Overcast
9:15 AM 75.2 °F - 71.6 °F 89% 30.02 in 10.0 mi NNE 8.1 mph - N/A   Overcast
9:35 AM 75.2 °F - 71.6 °F 89% 30.03 in 10.0 mi NNE 6.9 mph - N/A   Overcast
9:55 AM 75.2 °F - 71.6 °F 89% 30.03 in 10.0 mi NNE 9.2 mph - N/A   Overcast
10:15 AM 75.2 °F - 71.6 °F 89% 30.03 in 10.0 mi NE 6.9 mph - N/A   Overcast
10:35 AM 75.2 °F - 71.6 °F 89% 30.03 in 10.0 mi NNE 8.1 mph - N/A   Overcast
10:55 AM 77.0 °F - 71.6 °F 83% 30.03 in 10.0 mi NE 8.1 mph - N/A   Overcast
11:15 AM 75.2 °F - 69.8 °F 83% 30.03 in 10.0 mi NE 9.2 mph - N/A   Overcast
11:35 AM 80.6 °F 84.6 °F 71.6 °F 74% 30.03 in 10.0 mi NNE 9.2 mph 16.1 mph N/A   Mostly Cloudy
11:55 AM 78.8 °F - 69.8 °F 74% 30.03 in 10.0 mi North 8.1 mph - N/A   Mostly Cloudy
12:15 PM 80.6 °F 83.9 °F 69.8 °F 70% 30.03 in 10.0 mi NNE 4.6 mph - N/A   Overcast
12:35 PM 80.6 °F 83.9 °F 69.8 °F 70% 30.03 in 10.0 mi NNE 4.6 mph - N/A   Overcast
12:55 PM 82.4 °F 86.3 °F 69.8 °F 66% 30.03 in 10.0 mi NE 6.9 mph - N/A   Overcast
1:15 PM 80.6 °F 83.9 °F 69.8 °F 70% 30.03 in 10.0 mi North 9.2 mph - N/A   Overcast
1:35 PM 82.4 °F 86.3 °F 69.8 °F 66% 30.02 in 10.0 mi NNE 10.4 mph 17.3 mph N/A   Mostly Cloudy
1:55 PM 82.4 °F 86.3 °F 69.8 °F 66% 30.02 in 10.0 mi NNE 10.4 mph 19.6 mph N/A   Mostly Cloudy
2:15 PM 84.2 °F 88.4 °F 69.8 °F 62% 30.01 in 10.0 mi North 9.2 mph - N/A   Mostly Cloudy
2:35 PM 82.4 °F 85.4 °F 68.0 °F 62% 30.00 in 10.0 mi NE 5.8 mph 9.2 mph N/A   Mostly Cloudy
2:55 PM 82.4 °F 85.4 °F 68.0 °F 62% 30.00 in 10.0 mi North 8.1 mph - N/A   Mostly Cloudy
3:15 PM 86.0 °F 89.4 °F 68.0 °F 55% 30.00 in 10.0 mi NNE 11.5 mph - N/A   Overcast
3:35 PM 86.0 °F 89.4 °F 68.0 °F 55% 29.99 in 10.0 mi NE 9.2 mph - N/A   Mostly Cloudy
3:55 PM 86.0 °F 89.4 °F 68.0 °F 55% 29.99 in 10.0 mi NE 9.2 mph - N/A   Mostly Cloudy
4:15 PM 86.0 °F 88.2 °F 66.2 °F 51% 29.98 in 10.0 mi NNE 9.2 mph - N/A   Mostly Cloudy
4:35 PM 86.0 °F 89.4 °F 68.0 °F 55% 29.97 in 10.0 mi NE 9.2 mph - N/A   Mostly Cloudy
4:55 PM 86.0 °F 89.4 °F 68.0 °F 55% 29.96 in 10.0 mi NNE 6.9 mph - N/A   Scattered Clouds
5:15 PM 86.0 °F 89.4 °F 68.0 °F 55% 29.95 in 10.0 mi East 9.2 mph - N/A   Mostly Cloudy
5:35 PM 86.0 °F 88.2 °F 66.2 °F 51% 29.95 in 10.0 mi NE 6.9 mph - N/A   Scattered Clouds
5:55 PM 86.0 °F 88.2 °F 66.2 °F 51% 29.94 in 10.0 mi ENE 9.2 mph - N/A   Scattered Clouds
6:15 PM 84.2 °F 85.6 °F 64.4 °F 51% 29.95 in 10.0 mi NE 6.9 mph - N/A   Clear
6:35 PM 84.2 °F 86.6 °F 66.2 °F 55% 29.94 in 10.0 mi ENE 8.1 mph - N/A   Clear
6:55 PM 82.4 °F 83.9 °F 64.4 °F 54% 29.94 in 10.0 mi ENE 9.2 mph - N/A   Clear
7:15 PM 82.4 °F 84.6 °F 66.2 °F 58% 29.94 in 10.0 mi ENE 5.8 mph - N/A   Clear
7:35 PM 80.6 °F 82.7 °F 66.2 °F 61% 29.94 in 10.0 mi ENE 5.8 mph - N/A   Clear
7:55 PM 80.6 °F 82.7 °F 66.2 °F 61% 29.95 in 10.0 mi ENE 4.6 mph - N/A   Clear
8:15 PM 78.8 °F - 66.2 °F 65% 29.96 in 10.0 mi ENE 4.6 mph - N/A   Clear
8:35 PM 77.0 °F - 66.2 °F 69% 29.97 in 10.0 mi East 5.8 mph - N/A   Clear
8:55 PM 77.0 °F - 66.2 °F 69% 29.97 in 10.0 mi ENE 5.8 mph - N/A   Clear
9:15 PM 75.2 °F - 66.2 °F 73% 29.97 in 10.0 mi ENE 4.6 mph - N/A   Clear
9:35 PM 73.4 °F - 66.2 °F 78% 29.98 in 10.0 mi East 4.6 mph - N/A   Clear
9:55 PM 73.4 °F - 66.2 °F 78% 29.98 in 10.0 mi East 4.6 mph - N/A   Clear
10:15 PM 73.4 °F - 66.2 °F 78% 29.98 in 10.0 mi ENE 4.6 mph - N/A   Clear
10:35 PM 73.4 °F - 66.2 °F 78% 29.98 in 10.0 mi ENE 4.6 mph - N/A   Clear
10:55 PM 71.6 °F - 66.2 °F 83% 29.98 in 10.0 mi ENE 4.6 mph - N/A   Clear
11:15 PM 71.6 °F - 66.2 °F 83% 29.98 in 10.0 mi NE 3.5 mph - N/A   Clear
11:35 PM 73.4 °F - 66.2 °F 78% 29.98 in 10.0 mi NE 8.1 mph - N/A   Clear
11:55 PM 71.6 °F - 66.2 °F 83% 29.98 in 10.0 mi ENE 3.5 mph - N/A   Clear